Hourly Data Report for March 23, 2012

All times are specified in Local Standard Time (LST). Add 1 hour to adjust for Daylight Saving Time where and when it is observed.

MIRAMICHI RCS
NEW BRUNSWICK

47°00'34.000" N
65°27'54.000" W
33.00 m
8100989
71744
ACQ

Download Data

Hourly Data (March 2012)
Hourly Data Report for March 23, 2012
TIME Temp Definition
°C
Dew Point Temp Definition
°C
Rel Hum Definition
%
Wind Dir Definition
10's deg

Wind Spd Definition
km/h
Visibility Definition
km
Stn Press Definition
kPa
Hmdx Definition


Wind Chill Definition


Weather Definition


00:00 10.7 -4.8 33 30 13   100.74     LegendNANA
01:00 9.2 -5.2 36 28 11   100.72     LegendNANA
02:00 8.1 -5.7 37 29 13   100.75     LegendNANA
03:00 7.2 -6.3 38 28 15   100.75     LegendNANA
04:00 6.0 -6.5 40 27 11   100.70     LegendNANA
05:00 5.4 -7.0 40 27 11   100.69     LegendNANA
06:00 5.1 -6.6 42 27 13   100.66     LegendNANA
07:00 5.0 -6.4 43 27 11   100.60     LegendNANA
08:00 6.4 -7.6 36 30 24   100.50     LegendNANA
09:00 6.3 -8.0 35 32 30   100.57     LegendNANA
10:00 6.6 -7.8 35 31 26   100.58     LegendNANA
11:00 6.7 -8.3 33 31 20   100.62     LegendNANA
12:00 7.2 -8.9 31 33 22   100.65     LegendNANA
13:00 7.2 -8.9 31 32 22   100.66     LegendNANA
14:00 7.7 -7.8 32 30 22   100.61     LegendNANA
15:00 7.7 -8.9 30 33 20   100.61     LegendNANA
16:00 7.2 -9.6 29 32 20   100.63     LegendNANA
17:00 6.0 -10.2 30 33 19   100.74     LegendNANA
18:00 3.8 -11.1 33 34 19   100.87     LegendNANA
19:00 1.4 -12.5 35 33 20   101.06     LegendNANA
20:00 0.2 -12.5 38 32 13   101.17     LegendNANA
21:00 -0.7 -13.4 38 34 15   101.25   -5 LegendNANA
22:00 -1.2 -13.6 38 33 11   101.27   -5 LegendNANA
23:00 -1.7 -13.7 39 32 9   101.24   -5 LegendNANA

Notes on Data Quality.

Legend

  • E = Estimated
  • M = Missing
  • NA = Not Available
Date modified: